Le nostre stazioni meteo in Italia

Pubblicità
Il mio iltempo24.it
Kleine Brogel, Belgio (6479): Temperatura & dewpoint: 19.01.2020 06:00:00 - 25.01.2020 06:00:00 (CET)Kleine Brogel, Belgio (6479): velocità del vento & gusts: 19.01.2020 06:00:00 - 25.01.2020 06:00:00 (CET)Kleine Brogel, Belgio (6479): direzione del vento: 19.01.2020 06:00:00 - 25.01.2020 06:00:00 (CET)Kleine Brogel, Belgio (6479): reduced air pressure: 19.01.2020 06:00:00 - 25.01.2020 06:00:00 (CET)Kleine Brogel, Belgio (6479): visibility: 19.01.2020 06:00:00 - 25.01.2020 06:00:00 (CET)
Data & Tempo tt [°C] td [°C] ff [km/h] ff [kn] fx [km/h] fx [kn] dd ppp [hPa] vv [km]
25.01.2020 06:00:00 0,0 -1,2 7 4 11 6 SSO 1022,6 4,9
25.01.2020 05:00:00 0,0 -1,0 7 4 14 8 S 1022,7 5
25.01.2020 04:00:00 0,0 -1,0 4 2 - - N 1023,0 5
25.01.2020 03:00:00 0,2 -0,8 4 2 11 6 N 1023,3 5
25.01.2020 02:00:00 0,4 -0,6 4 2 18 10 N 1023,5 6
25.01.2020 01:00:00 0,6 -0,2 7 4 - - SO 1023,7 7
25.01.2020 00:00:00 0,8 0,0 8 4 11 6 SSO 1023,7 6
24.01.2020 23:00:00 0,8 0,3 4 2 11 6 N 1023,8 6
24.01.2020 22:00:00 0,6 0,4 4 2 - - N 1024,2 4,2
24.01.2020 21:00:00 0,6 0,6 4 2 4 2 N 1024,4 4,0
24.01.2020 20:00:00 0,6 0,3 2 1 7 4 - 1024,2 4,1
24.01.2020 19:00:00 0,6 0,3 4 2 - - N 1023,8 4,8
24.01.2020 18:00:00 0,8 0,4 7 4 14 8 SO 1023,3 5
24.01.2020 17:00:00 - - - - - - - - -
24.01.2020 16:00:00 1,5 0,9 4 2 - - N 1023,5 4,0
24.01.2020 15:00:00 1,7 0,5 4 2 11 6 N 1023,7 4,0
24.01.2020 14:00:00 1,8 0,8 8 4 11 6 SSO 1024,2 5
24.01.2020 13:00:00 1,7 0,6 4 2 - - N 1024,7 5
24.01.2020 12:00:00 1,6 0,5 4 2 11 6 N 1025,0 3,0
24.01.2020 11:00:00 1,2 0,5 4 2 11 6 N 1025,0 3,0
24.01.2020 10:00:00 1,0 0,4 4 2 - - N 1024,9 3,0
24.01.2020 09:00:00 0,8 0,1 7 4 14 8 S 1024,7 3,0
24.01.2020 08:00:00 1,2 0,7 7 4 14 8 S 1024,5 4,0
24.01.2020 07:00:00 1,1 0,6 4 2 - - N 1024,4 5
24.01.2020 06:00:00 1,0 0,6 7 4 11 6 SSO 1024,7 5
24.01.2020 05:00:00 0,8 0,7 4 2 11 6 N 1025,0 5
24.01.2020 04:00:00 0,6 0,5 4 2 - - N 1025,4 1,7
24.01.2020 03:00:00 0,5 0,4 7 4 14 8 SO 1026,0 0,3
24.01.2020 02:00:00 0,8 0,7 4 2 7 4 N 1026,2 0,6
24.01.2020 01:00:00 0,8 0,7 4 2 - - N 1026,5 2,1
24.01.2020 00:00:00 1,0 0,7 4 2 11 6 N 1027,0 2,7
23.01.2020 23:00:00 1,2 0,9 4 2 14 8 N 1027,4 2,5
23.01.2020 22:00:00 1,1 0,9 7 4 - - ESE 1027,7 3,0
23.01.2020 21:00:00 1,2 0,8 11 6 18 10 E 1027,7 3,9
23.01.2020 20:00:00 1,3 0,8 11 6 18 10 E 1028,2 4,9
23.01.2020 19:00:00 1,7 1,1 7 4 - - E 1028,4 6
23.01.2020 18:00:00 2,2 1,3 7 4 14 8 E 1028,9 6
23.01.2020 17:00:00 2,4 1,3 7 4 18 10 E 1029,2 3,5
23.01.2020 16:00:00 2,7 1,7 7 4 - - E 1029,7 4,0
23.01.2020 15:00:00 3,2 1,9 7 4 18 10 E 1030,5 5
23.01.2020 14:00:00 3,4 2,0 13 7 25 14 E 1031,2 6
23.01.2020 13:00:00 3,7 1,7 14 8 - - E 1032,0 10
23.01.2020 12:00:00 3,8 2,3 11 6 14 8 ENE 1032,7 10
23.01.2020 11:00:00 3,2 2,0 7 4 14 8 E 1033,2 5
23.01.2020 10:00:00 3,0 2,1 7 4 - - ENE 1033,5 4,0
23.01.2020 09:00:00 2,5 2,1 4 2 7 4 N 1034,0 3,3
23.01.2020 08:00:00 2,5 2,1 4 2 11 6 N 1034,2 3,0
23.01.2020 07:00:00 2,5 2,2 5 3 - - E 1034,2 2,5
23.01.2020 06:00:00 2,7 2,5 7 4 11 6 N 1034,5 1,9
23.01.2020 05:00:00 2,7 2,7 4 2 7 4 N 1034,9 1,8
23.01.2020 04:00:00 2,7 2,6 4 2 - - N 1035,5 1,7
23.01.2020 03:00:00 2,9 2,8 4 2 7 4 N 1036,2 1,8
23.01.2020 02:00:00 2,7 2,7 4 2 4 2 N 1036,5 0,7
23.01.2020 01:00:00 2,5 2,5 4 2 - - N 1036,9 0,7
23.01.2020 00:00:00 2,7 2,6 4 2 11 6 N 1037,2 0,9
22.01.2020 23:00:00 2,7 2,6 4 2 7 4 N 1037,0 1,0
22.01.2020 22:00:00 2,5 2,5 4 2 - - N 1037,2 0,4
22.01.2020 21:00:00 2,2 2,2 4 2 0 0 N 1037,4 0,5
22.01.2020 20:00:00 2,2 2,2 4 2 4 2 N 1037,2 0,8
22.01.2020 19:00:00 2,0 2,0 4 2 - - N 1037,2 1,1
22.01.2020 18:00:00 2,0 2,0 4 2 7 4 N 1037,0 1,7
22.01.2020 17:00:00 2,1 2,1 4 2 7 4 N 1036,9 1,3
22.01.2020 16:00:00 2,2 2,2 4 2 - - N 1036,9 0,7
22.01.2020 15:00:00 2,0 2,0 4 2 7 4 N 1036,7 0,9
22.01.2020 14:00:00 1,7 1,7 4 2 7 4 - 1037,0 0,8
22.01.2020 13:00:00 0,9 0,9 2 1 - - - 1037,7 1,2
22.01.2020 12:00:00 -0,1 -0,1 4 2 11 6 N 1038,2 1,8
22.01.2020 11:00:00 -0,6 -0,6 4 2 11 6 N 1038,2 1,8
22.01.2020 10:00:00 -1,4 -1,4 4 2 - - - 1038,2 2,0
22.01.2020 09:00:00 -2,0 -2,0 4 2 7 4 N 1038,5 1,3
22.01.2020 08:00:00 -2,4 -2,4 5 3 11 6 OSO 1037,7 0,6
22.01.2020 07:00:00 -2,6 -2,6 5 3 - - SO 1037,7 -
22.01.2020 06:00:00 -2,7 -2,7 4 2 4 2 N 1038,0 0,3
22.01.2020 05:00:00 -2,8 -2,8 4 2 4 2 N 1038,5 0,4
22.01.2020 04:00:00 -3,1 -3,1 4 2 - - N 1038,5 0,6
22.01.2020 03:00:00 -3,3 -3,3 4 2 7 4 N 1039,0 0,3
22.01.2020 02:00:00 -2,8 -2,8 4 2 14 8 N 1039,5 0,5
22.01.2020 01:00:00 -2,5 -2,5 7 4 - - NNO 1040,0 0,5
22.01.2020 00:00:00 -2,8 -2,8 4 2 11 6 N 1039,7 0,3
21.01.2020 23:00:00 -2,6 -2,6 4 2 7 4 N 1039,7 0,3
21.01.2020 22:00:00 -2,4 -2,4 4 2 - - N 1040,5 0,2
21.01.2020 21:00:00 -1,9 -1,9 4 2 7 4 N 1040,4 0,2
21.01.2020 20:00:00 -1,5 -1,5 4 2 7 4 N 1040,5 0,2
21.01.2020 19:00:00 -1,3 -1,2 4 2 - - N 1041,2 0,2
21.01.2020 18:00:00 -1,1 -1,1 4 2 7 4 N 1041,2 0,2
21.01.2020 17:00:00 -0,3 -0,3 4 2 4 2 N 1041,4 0,1
21.01.2020 16:00:00 0,4 0,3 4 2 - - N 1041,7 2,5
21.01.2020 15:00:00 0,9 0,9 4 2 7 4 N 1041,7 2,8
21.01.2020 14:00:00 0,0 0,0 4 2 7 4 N 1042,4 2,0
21.01.2020 13:00:00 -0,8 -0,8 4 2 - - N 1043,0 0,5
21.01.2020 12:00:00 -1,8 -1,8 4 2 7 4 N 1044,0 0,3
21.01.2020 11:00:00 -2,9 -2,9 4 2 4 2 N 1044,2 0,1
21.01.2020 10:00:00 -3,1 -3,1 4 2 - - N 1043,9 0,3
21.01.2020 09:00:00 -3,4 -3,4 4 2 4 2 N 1043,5 0,1
21.01.2020 08:00:00 -3,0 -3,0 4 2 4 2 N 1043,5 -
21.01.2020 07:00:00 -2,7 -2,7 4 2 - - N 1043,7 -
21.01.2020 06:00:00 -2,0 -2,0 4 2 7 4 N 1043,7 0,3
21.01.2020 05:00:00 -1,5 -1,5 4 2 4 2 N 1044,0 0,2
21.01.2020 04:00:00 -1,1 -1,1 4 2 - - N 1044,5 0,2
21.01.2020 03:00:00 -0,8 -0,8 4 2 4 2 N 1045,0 0,2
21.01.2020 02:00:00 -0,1 -0,1 4 2 7 4 N 1045,2 0,2
21.01.2020 01:00:00 0,6 0,6 4 2 - - N 1045,7 0,2
21.01.2020 00:00:00 1,2 1,2 4 2 7 4 N 1046,2 0,2
20.01.2020 23:00:00 1,6 1,6 4 2 7 4 N 1046,4 0,1
20.01.2020 22:00:00 2,5 2,5 4 2 - - N 1046,4 0,1
20.01.2020 21:00:00 3,2 3,2 4 2 7 4 - 1046,7 0,6
20.01.2020 20:00:00 3,5 3,2 2 1 4 2 - 1046,5 2,5
20.01.2020 19:00:00 3,7 3,3 4 2 - - N 1046,9 2,5
20.01.2020 18:00:00 4,0 3,6 4 2 7 4 N 1046,9 3,0
20.01.2020 17:00:00 4,5 3,8 4 2 7 4 N 1047,0 3,5
20.01.2020 16:00:00 5,0 4,0 4 2 - - N 1047,2 3,5
20.01.2020 15:00:00 4,9 4,3 4 2 7 4 N 1047,5 3,0
20.01.2020 14:00:00 4,4 4,0 2 1 4 2 - 1048,2 2,0
20.01.2020 13:00:00 4,2 4,2 4 2 - - N 1048,7 0,8
20.01.2020 12:00:00 3,0 3,0 4 2 11 6 N 1049,0 1,0
20.01.2020 11:00:00 1,5 1,5 4 2 7 4 N 1049,5 0,7
20.01.2020 10:00:00 0,2 0,2 4 2 - - N 1049,2 0,3
20.01.2020 09:00:00 -0,9 -1,1 4 2 4 2 N 1048,5 -
20.01.2020 08:00:00 -0,6 -0,6 4 2 4 2 N 1048,4 -
20.01.2020 07:00:00 -0,3 -0,3 2 1 - - - 1048,0 0,1
20.01.2020 06:00:00 -0,4 -0,4 4 2 4 2 N 1048,0 0,2
20.01.2020 05:00:00 -0,3 -0,3 4 2 4 2 N 1047,7 0,2
20.01.2020 04:00:00 -0,4 -0,4 4 2 - - N 1047,7 0,5
20.01.2020 03:00:00 0,0 0,0 0 0 4 2 N 1047,7 0,4
20.01.2020 02:00:00 1,7 1,5 4 2 11 6 N 1047,5 5
20.01.2020 01:00:00 1,3 1,1 4 2 - - N 1047,5 9
20.01.2020 00:00:00 0,6 0,3 4 2 7 4 N 1047,5 7
19.01.2020 23:00:00 1,0 0,3 4 2 7 4 N 1047,0 11
19.01.2020 22:00:00 1,3 0,4 4 2 - - N 1046,5 14
19.01.2020 21:00:00 1,5 0,5 4 2 7 4 N 1046,0 14
19.01.2020 20:00:00 2,0 0,7 4 2 7 4 N 1045,5 19
19.01.2020 19:00:00 3,2 1,2 4 2 - - N 1044,5 19
19.01.2020 18:00:00 4,3 1,7 4 2 11 6 N 1044,0 11
19.01.2020 17:00:00 5,6 3,0 4 2 22 12 N 1042,7 11
19.01.2020 16:00:00 6,5 2,5 7 4 - - N 1041,9 18
19.01.2020 15:00:00 7,0 2,4 11 6 25 14 N 1041,0 20
19.01.2020 14:00:00 6,6 2,5 14 8 25 14 N 1040,7 20
19.01.2020 13:00:00 5,8 2,4 7 4 - - NNE 1040,0 20
19.01.2020 12:00:00 5,0 2,7 7 4 18 10 N 1039,9 10
19.01.2020 11:00:00 2,7 1,4 7 4 14 8 N 1039,4 20
19.01.2020 10:00:00 1,7 0,8 7 4 - - N 1038,4 19
19.01.2020 09:00:00 0,4 -0,2 4 2 11 6 N 1037,0 19
19.01.2020 08:00:00 0,6 0,0 7 4 11 6 O 1036,0 19
19.01.2020 07:00:00 0,5 -0,1 7 4 - - N 1035,0 20
19.01.2020 06:00:00 0,4 -0,2 7 4 14 8 O 1034,7 20

tt = Temperatura
td = dewpoint
ff = velocità del vento
fx = gusts
dd = direzione del vento
ppp = reduced air pressure
vv = visibility

Stazioni seguenti

WeatherPro
AMSI
MeteoEarth